| time (UTC) | temp F | wind direction | speed MPH | gust MPH | rain 1hr in | rain 24hr in | rain mn in | humidity % | barometer mb |
| 20260903020533 | 79 | 0 | 0.0 | 0.0 | 0.00 | 0.00 | 0.00 | 84 | 1018.1 |
| 20260903020055 | 79 | 0 | 0.0 | 0.0 | 0.00 | 0.00 | 0.00 | 84 | 1018.2 |
| 20260903015533 | 79 | 0 | 0.0 | 0.0 | 0.00 | 0.00 | 0.00 | 84 | 1018.1 |
| 20260903015040 | 79 | 0 | 0.0 | 0.0 | 0.00 | 0.00 | 0.00 | 83 | 1018.1 |
| 20260903014608 | 79 | 0 | 0.0 | 0.0 | 0.00 | 0.00 | 0.00 | 83 | 1018.1 |
| 20260903014034 | 79 | 0 | 0.0 | 0.0 | 0.00 | 0.00 | 0.00 | 82 | 1018.1 |
| 20260903013538 | 80 | 0 | 0.0 | 0.0 | 0.00 | 0.00 | 0.00 | 82 | 1018.0 |
| 20260903013106 | 80 | 0 | 0.0 | 0.0 | 0.00 | 0.00 | 0.00 | 81 | 1018.1 |
| 20260903012534 | 80 | 0 | 0.0 | 0.0 | 0.00 | 0.00 | 0.00 | 80 | 1018.0 |
| 20260903012037 | 81 | 0 | 0.0 | 0.0 | 0.00 | 0.00 | 0.00 | 80 | 1018.0 |
| 20260903011609 | 81 | 0 | 0.0 | 0.0 | 0.00 | 0.00 | 0.00 | 79 | 1017.9 |
| 20260903011034 | 81 | 0 | 0.0 | 0.0 | 0.00 | 0.00 | 0.00 | 78 | 1017.8 |
| 20260903010535 | 82 | 0 | 0.0 | 0.0 | 0.00 | 0.00 | 0.00 | 77 | 1017.8 |
| 20260903010115 | 82 | 0 | 0.0 | 0.0 | 0.00 | 0.00 | 0.00 | 77 | 1017.8 |
| 20260903005534 | 82 | 0 | 0.0 | 0.0 | 0.00 | 0.00 | 0.00 | 76 | 1017.8 |
| 20260903005034 | 83 | 0 | 0.0 | 0.0 | 0.00 | 0.00 | 0.00 | 75 | 1017.7 |
| 20260903004555 | 83 | 0 | 0.0 | 0.0 | 0.00 | 0.00 | 0.00 | 75 | 1017.7 |
| 20260903004033 | 83 | 0 | 0.0 | 0.0 | 0.00 | 0.00 | 0.00 | 75 | 1017.7 |
| 20260903003536 | 83 | 0 | 0.0 | 0.0 | 0.00 | 0.00 | 0.00 | 74 | 1017.7 |
| 20260903003051 | 84 | 0 | 0.0 | 0.0 | 0.00 | 0.00 | 0.00 | 74 | 1017.6 |
| 20260903002533 | 84 | 0 | 0.0 | 0.0 | 0.00 | 0.00 | 0.00 | 74 | 1017.6 |
| 20260903002034 | 84 | 0 | 0.0 | 0.0 | 0.00 | 0.00 | 0.00 | 73 | 1017.7 |
| 20260903001600 | 84 | 0 | 0.0 | 0.0 | 0.00 | 0.00 | 0.00 | 72 | 1017.6 |
| 20260903001036 | 85 | 0 | 0.0 | 0.0 | 0.00 | 0.00 | 0.00 | 72 | 1017.6 |
| 20260903000534 | 85 | 0 | 0.0 | 1.0 | 0.00 | 0.00 | 0.00 | 71 | 1017.7 |
| 20260903000055 | 85 | 0 | 0.0 | 1.0 | 0.00 | 0.00 | 0.00 | 71 | 1017.6 |
| 20260902235533 | 86 | 40 | 0.0 | 2.0 | 0.00 | 0.00 | 0.00 | 71 | 1017.6 |
| 20260902235033 | 86 | 41 | 0.0 | 2.0 | 0.00 | 0.00 | 0.00 | 71 | 1017.6 |
| 20260902234606 | 86 | 12 | 0.0 | 1.0 | 0.00 | 0.00 | 0.00 | 70 | 1017.5 |
| 20260902234037 | 86 | 10 | 0.0 | 2.0 | 0.00 | 0.00 | 0.00 | 70 | 1017.5 |
| 20260902233535 | 87 | 11 | 1.0 | 2.0 | 0.00 | 0.00 | 0.00 | 70 | 1017.4 |
| 20260902233056 | 87 | 0 | 0.0 | 1.0 | 0.00 | 0.00 | 0.00 | 69 | 1017.5 |
| 20260902232534 | 87 | 23 | 0.0 | 2.0 | 0.00 | 0.00 | 0.00 | 69 | 1017.6 |
| 20260902232036 | 88 | 0 | 0.0 | 2.0 | 0.00 | 0.00 | 0.00 | 68 | 1017.5 |
| 20260902231611 | 88 | 17 | 1.0 | 2.0 | 0.00 | 0.00 | 0.00 | 67 | 1017.5 |
| 20260902231035 | 89 | 0 | 0.0 | 2.0 | 0.00 | 0.00 | 0.00 | 67 | 1017.5 |
| 20260902230535 | 90 | 309 | 0.0 | 3.0 | 0.00 | 0.00 | 0.00 | 65 | 1017.5 |
| 20260902230056 | 90 | 32 | 1.0 | 3.0 | 0.00 | 0.00 | 0.00 | 65 | 1017.6 |
| 20260902225535 | 91 | 44 | 1.0 | 3.0 | 0.00 | 0.00 | 0.00 | 63 | 1017.6 |
| 20260902225038 | 92 | 38 | 0.0 | 6.0 | 0.00 | 0.00 | 0.00 | 62 | 1017.6 |
| 20260902224604 | 92 | 30 | 1.0 | 7.0 | 0.00 | 0.00 | 0.00 | 61 | 1017.6 |
| 20260902224036 | 92 | 113 | 2.0 | 7.0 | 0.00 | 0.00 | 0.00 | 60 | 1017.6 |
| 20260902223535 | 93 | 44 | 0.0 | 2.0 | 0.00 | 0.00 | 0.00 | 60 | 1017.6 |
| 20260902223055 | 93 | 28 | 0.0 | 3.0 | 0.00 | 0.00 | 0.00 | 61 | 1017.6 |
| 20260902222535 | 93 | 19 | 1.0 | 5.0 | 0.00 | 0.00 | 0.00 | 61 | 1017.6 |
| 20260902222034 | 93 | 340 | 1.0 | 5.0 | 0.00 | 0.00 | 0.00 | 60 | 1017.6 |
| 20260902221619 | 93 | 257 | 1.0 | 5.0 | 0.00 | 0.00 | 0.00 | 59 | 1017.6 |
| 20260902221036 | 93 | 347 | 1.0 | 5.0 | 0.00 | 0.00 | 0.00 | 60 | 1017.5 |
| 20260902220536 | 93 | 90 | 1.0 | 5.0 | 0.00 | 0.00 | 0.00 | 59 | 1017.7 |
| 20260902220100 | 93 | 343 | 2.0 | 5.0 | 0.00 | 0.00 | 0.00 | 60 | 1017.7 |
| 20260902215537 | 93 | 348 | 1.0 | 7.0 | 0.00 | 0.00 | 0.00 | 58 | 1017.7 |
| 20260902215037 | 93 | 26 | 1.0 | 7.0 | 0.00 | 0.00 | 0.00 | 59 | 1017.7 |
| 20260902214557 | 93 | 59 | 1.0 | 5.0 | 0.00 | 0.00 | 0.00 | 59 | 1017.7 |
| 20260902214036 | 93 | 244 | 1.0 | 7.0 | 0.00 | 0.00 | 0.00 | 58 | 1017.9 |
| 20260902213539 | 93 | 10 | 2.0 | 9.0 | 0.00 | 0.00 | 0.00 | 60 | 1017.8 |
| 20260902213102 | 93 | 67 | 2.0 | 9.0 | 0.00 | 0.00 | 0.00 | 59 | 1017.8 |
| 20260902212536 | 93 | 336 | 3.0 | 9.0 | 0.00 | 0.00 | 0.00 | 58 | 1017.7 |
| 20260902212036 | 93 | 67 | 2.0 | 7.0 | 0.00 | 0.00 | 0.00 | 60 | 1018.0 |
| 20260902211558 | 93 | 26 | 2.0 | 7.0 | 0.00 | 0.00 | 0.00 | 59 | 1017.8 |
| 20260902211035 | 93 | 57 | 2.0 | 5.0 | 0.00 | 0.00 | 0.00 | 59 | 1017.9 |
| 20260902210539 | 94 | 90 | 1.0 | 5.0 | 0.00 | 0.00 | 0.00 | 58 | 1018.0 |
| 20260902210056 | 94 | 38 | 1.0 | 5.0 | 0.00 | 0.00 | 0.00 | 60 | 1018.0 |
| 20260902205536 | 94 | 62 | 2.0 | 6.0 | 0.00 | 0.00 | 0.00 | 60 | 1018.0 |
| 20260902205036 | 94 | 44 | 2.0 | 6.0 | 0.00 | 0.00 | 0.00 | 56 | 1017.9 |
| 20260902204607 | 94 | 43 | 2.0 | 4.0 | 0.00 | 0.00 | 0.00 | 56 | 1018.1 |
| 20260902204037 | 94 | 341 | 2.0 | 6.0 | 0.00 | 0.00 | 0.00 | 54 | 1018.0 |
| 20260902203536 | 94 | 84 | 1.0 | 6.0 | 0.00 | 0.00 | 0.00 | 57 | 1018.1 |
| 20260902203050 | 94 | 14 | 2.0 | 9.0 | 0.00 | 0.00 | 0.00 | 55 | 1018.2 |
| 20260902202538 | 93 | 334 | 2.0 | 9.0 | 0.00 | 0.00 | 0.00 | 58 | 1018.2 |
| 20260902202037 | 93 | 100 | 3.0 | 9.0 | 0.00 | 0.00 | 0.00 | 56 | 1018.3 |
| 20260902201601 | 94 | 61 | 2.0 | 8.0 | 0.00 | 0.00 | 0.00 | 56 | 1018.3 |
| 20260902201037 | 94 | 80 | 2.0 | 8.0 | 0.00 | 0.00 | 0.00 | 56 | 1018.4 |
| 20260902200537 | 94 | 69 | 2.0 | 6.0 | 0.00 | 0.00 | 0.00 | 56 | 1018.5 |
| 20260902200054 | 94 | 17 | 2.0 | 7.0 | 0.00 | 0.00 | 0.00 | 57 | 1018.5 |
| 20260902195537 | 94 | 52 | 2.0 | 7.0 | 0.00 | 0.00 | 0.00 | 56 | 1018.6 |
| 20260902195036 | 94 | 54 | 1.0 | 5.0 | 0.00 | 0.00 | 0.00 | 55 | 1018.6 |
| 20260902194554 | 94 | 248 | 2.0 | 5.0 | 0.00 | 0.00 | 0.00 | 55 | 1018.6 |
| 20260902194037 | 94 | 21 | 2.0 | 11.0 | 0.00 | 0.00 | 0.00 | 56 | 1018.7 |
| 20260902193540 | 94 | 345 | 1.0 | 11.0 | 0.00 | 0.00 | 0.00 | 55 | 1018.8 |
| 20260902193108 | 93 | 53 | 3.0 | 11.0 | 0.00 | 0.00 | 0.00 | 55 | 1018.8 |
| 20260902192537 | 94 | 259 | 2.0 | 9.0 | 0.00 | 0.00 | 0.00 | 55 | 1018.8 |
| 20260902192037 | 94 | 19 | 3.0 | 9.0 | 0.00 | 0.00 | 0.00 | 58 | 1018.9 |
| 20260902191629 | 94 | 47 | 3.0 | 9.0 | 0.00 | 0.00 | 0.00 | 57 | 1018.8 |
| 20260902191037 | 94 | 26 | 2.0 | 9.0 | 0.00 | 0.00 | 0.00 | 56 | 1018.9 |
| 20260902190536 | 94 | 68 | 1.0 | 8.0 | 0.00 | 0.00 | 0.00 | 57 | 1018.9 |
| 20260902190058 | 94 | 72 | 1.0 | 4.0 | 0.00 | 0.00 | 0.00 | 58 | 1019.2 |
| 20260902185536 | 93 | 0 | 2.0 | 4.0 | 0.00 | 0.00 | 0.00 | 57 | 1019.2 |
| 20260902185039 | 93 | 272 | 1.0 | 4.0 | 0.00 | 0.00 | 0.00 | 57 | 1019.2 |
| 20260902184553 | 94 | 59 | 1.0 | 5.0 | 0.00 | 0.00 | 0.00 | 59 | 1019.2 |
| 20260902184037 | 93 | 265 | 1.0 | 6.0 | 0.00 | 0.00 | 0.00 | 59 | 1019.2 |
| 20260902183536 | 93 | 69 | 2.0 | 7.0 | 0.00 | 0.00 | 0.00 | 57 | 1019.4 |
| 20260902183124 | 94 | 83 | 2.0 | 7.0 | 0.00 | 0.00 | 0.00 | 55 | 1019.3 |
| 20260902182536 | 94 | 109 | 2.0 | 6.0 | 0.00 | 0.00 | 0.00 | 57 | 1019.4 |
| 20260902182036 | 94 | 307 | 2.0 | 6.0 | 0.00 | 0.00 | 0.00 | 57 | 1019.4 |
| 20260902181555 | 94 | 64 | 2.0 | 6.0 | 0.00 | 0.00 | 0.00 | 60 | 1019.3 |
| 20260902181036 | 93 | 71 | 2.0 | 7.0 | 0.00 | 0.00 | 0.00 | 57 | 1019.4 |
| 20260902180537 | 94 | 61 | 2.0 | 7.0 | 0.00 | 0.00 | 0.00 | 59 | 1019.4 |
| 20260902180105 | 94 | 40 | 2.0 | 6.0 | 0.00 | 0.00 | 0.00 | 61 | 1019.6 |
| 20260902175537 | 93 | 52 | 2.0 | 5.0 | 0.00 | 0.00 | 0.00 | 60 | 1019.6 |
| 20260902175040 | 93 | 44 | 2.0 | 6.0 | 0.00 | 0.00 | 0.00 | 58 | 1019.6 |
| 20260902174555 | 93 | 282 | 1.0 | 6.0 | 0.00 | 0.00 | 0.00 | 59 | 1019.7 |
| 20260902174036 | 93 | 47 | 2.0 | 6.0 | 0.00 | 0.00 | 0.00 | 62 | 1019.8 |
| 20260902173537 | 93 | 241 | 2.0 | 7.0 | 0.00 | 0.00 | 0.00 | 60 | 1019.9 |
| 20260902173114 | 93 | 286 | 3.0 | 7.0 | 0.00 | 0.00 | 0.00 | 61 | 1019.9 |
| 20260902172537 | 93 | 13 | 3.0 | 7.0 | 0.00 | 0.00 | 0.00 | 60 | 1020.0 |
| 20260902172037 | 92 | 90 | 2.0 | 7.0 | 0.00 | 0.00 | 0.00 | 61 | 1020.0 |
| 20260902171617 | 92 | 50 | 2.0 | 6.0 | 0.00 | 0.00 | 0.00 | 60 | 1020.0 |
| 20260902171039 | 92 | 51 | 2.0 | 6.0 | 0.00 | 0.00 | 0.00 | 60 | 1020.0 |
| 20260902170536 | 92 | 339 | 2.0 | 6.0 | 0.00 | 0.00 | 0.00 | 64 | 1020.1 |
| 20260902170058 | 92 | 77 | 2.0 | 6.0 | 0.00 | 0.00 | 0.00 | 63 | 1020.0 |
| 20260902165537 | 93 | 54 | 3.0 | 6.0 | 0.00 | 0.00 | 0.00 | 64 | 1020.0 |
| 20260902165039 | 92 | 312 | 1.0 | 5.0 | 0.00 | 0.00 | 0.00 | 65 | 1020.0 |
| 20260902164602 | 92 | 334 | 2.0 | 7.0 | 0.00 | 0.00 | 0.00 | 63 | 1020.1 |
| 20260902164037 | 92 | 38 | 1.0 | 7.0 | 0.00 | 0.00 | 0.00 | 62 | 1020.1 |
| 20260902163537 | 92 | 92 | 2.0 | 6.0 | 0.00 | 0.00 | 0.00 | 63 | 1020.1 |
| 20260902163105 | 92 | 32 | 1.0 | 7.0 | 0.00 | 0.00 | 0.00 | 65 | 1020.1 |
| 20260902162538 | 92 | 12 | 2.0 | 7.0 | 0.00 | 0.00 | 0.00 | 64 | 1020.1 |
| 20260902162039 | 92 | 0 | 1.0 | 4.0 | 0.00 | 0.00 | 0.00 | 62 | 1020.0 |
| 20260902161601 | 92 | 54 | 0.0 | 3.0 | 0.00 | 0.00 | 0.00 | 62 | 1020.1 |
| 20260902161038 | 91 | 26 | 1.0 | 3.0 | 0.00 | 0.00 | 0.00 | 64 | 1020.2 |
| 20260902160538 | 90 | 71 | 1.0 | 5.0 | 0.00 | 0.00 | 0.00 | 64 | 1020.2 |
| 20260902160104 | 90 | 48 | 2.0 | 5.0 | 0.00 | 0.00 | 0.00 | 63 | 1020.2 |
| 20260902155537 | 90 | 0 | 1.0 | 4.0 | 0.00 | 0.00 | 0.00 | 65 | 1020.3 |
| 20260902155038 | 90 | 81 | 2.0 | 3.0 | 0.00 | 0.00 | 0.00 | 66 | 1020.2 |
| 20260902154558 | 89 | 195 | 1.0 | 3.0 | 0.00 | 0.00 | 0.00 | 66 | 1020.4 |
| 20260902154037 | 89 | 13 | 0.0 | 4.0 | 0.00 | 0.00 | 0.00 | 69 | 1020.3 |
| 20260902153537 | 89 | 36 | 1.0 | 4.0 | 0.00 | 0.00 | 0.00 | 67 | 1020.2 |
| 20260902153059 | 88 | 103 | 2.0 | 4.0 | 0.00 | 0.00 | 0.00 | 67 | 1020.3 |
| 20260902152537 | 88 | 20 | 1.0 | 6.0 | 0.00 | 0.00 | 0.00 | 68 | 1020.4 |
| 20260902152036 | 87 | 91 | 2.0 | 6.0 | 0.00 | 0.00 | 0.00 | 70 | 1020.3 |
| 20260902151559 | 87 | 84 | 1.0 | 4.0 | 0.00 | 0.00 | 0.00 | 71 | 1020.4 |
| 20260902151036 | 87 | 44 | 1.0 | 4.0 | 0.00 | 0.00 | 0.00 | 70 | 1020.3 |
| 20260902150538 | 86 | 0 | 1.0 | 4.0 | 0.00 | 0.00 | 0.00 | 72 | 1020.5 |
| 20260902150055 | 85 | 44 | 1.0 | 4.0 | 0.00 | 0.00 | 0.00 | 72 | 1020.4 |
| 20260902145538 | 85 | 318 | 2.0 | 4.0 | 0.00 | 0.00 | 0.00 | 72 | 1020.4 |
| 20260902145037 | 85 | 22 | 1.0 | 4.0 | 0.00 | 0.00 | 0.00 | 75 | 1020.4 |
| 20260902144552 | 84 | 0 | 1.0 | 4.0 | 0.00 | 0.00 | 0.00 | 75 | 1020.5 |
| 20260902144036 | 84 | 42 | 0.0 | 4.0 | 0.00 | 0.00 | 0.00 | 75 | 1020.4 |
| 20260902143537 | 83 | 0 | 1.0 | 4.0 | 0.00 | 0.00 | 0.00 | 75 | 1020.4 |
| 20260902143101 | 83 | 347 | 1.0 | 4.0 | 0.00 | 0.00 | 0.00 | 77 | 1020.4 |
| 20260902142537 | 82 | 51 | 1.0 | 3.0 | 0.00 | 0.00 | 0.00 | 79 | 1020.4 |
| 20260902142033 | 82 | 0 | 0.0 | 4.0 | 0.00 | 0.00 | 0.00 | 82 | 1020.3 |
| 20260902141555 | 82 | 34 | 1.0 | 4.0 | 0.00 | 0.00 | 0.00 | 81 | 1020.4 |
| 20260902141032 | 81 | 36 | 0.0 | 3.0 | 0.00 | 0.00 | 0.00 | 83 | 1020.5 |
| 20260902140532 | 81 | 5 | 0.0 | 3.0 | 0.00 | 0.00 | 0.00 | 83 | 1020.4 |
| 20260902140054 | 81 | 73 | 1.0 | 4.0 | 0.00 | 0.00 | 0.00 | 82 | 1020.3 |
| 20260902135534 | 80 | 68 | 1.0 | 4.0 | 0.00 | 0.00 | 0.00 | 83 | 1020.4 |
| 20260902135037 | 80 | 0 | 1.0 | 4.0 | 0.00 | 0.00 | 0.00 | 85 | 1020.3 |
| 20260902134555 | 79 | 55 | 1.0 | 3.0 | 0.00 | 0.00 | 0.00 | 85 | 1020.3 |
| 20260902134034 | 79 | 15 | 1.0 | 3.0 | 0.00 | 0.00 | 0.00 | 86 | 1020.2 |
| 20260902133536 | 78 | 22 | 1.0 | 3.0 | 0.00 | 0.00 | 0.00 | 87 | 1020.4 |
| 20260902133057 | 78 | 20 | 1.0 | 3.0 | 0.00 | 0.00 | 0.00 | 87 | 1020.4 |
| 20260902132536 | 78 | 17 | 1.0 | 3.0 | 0.00 | 0.00 | 0.00 | 88 | 1020.4 |
| 20260902132036 | 77 | 352 | 1.0 | 3.0 | 0.00 | 0.00 | 0.00 | 89 | 1020.4 |
| 20260902131557 | 77 | 23 | 1.0 | 3.0 | 0.00 | 0.00 | 0.00 | 90 | 1020.3 |
| 20260902131033 | 76 | 19 | 1.0 | 3.0 | 0.00 | 0.00 | 0.00 | 91 | 1020.3 |
| 20260902130533 | 76 | 32 | 1.0 | 2.0 | 0.00 | 0.00 | 0.00 | 91 | 1020.3 |
| 20260902130056 | 76 | 21 | 1.0 | 2.0 | 0.00 | 0.00 | 0.00 | 91 | 1020.4 |
| 20260902125536 | 75 | 21 | 1.0 | 2.0 | 0.00 | 0.00 | 0.00 | 91 | 1020.3 |
| 20260902125033 | 75 | 360 | 1.0 | 3.0 | 0.00 | 0.00 | 0.00 | 92 | 1020.3 |
| 20260902124551 | 75 | 30 | 1.0 | 3.0 | 0.00 | 0.00 | 0.00 | 92 | 1020.2 |
| 20260902124034 | 74 | 42 | 1.0 | 2.0 | 0.00 | 0.00 | 0.00 | 92 | 1020.3 |
| 20260902123533 | 74 | 22 | 1.0 | 2.0 | 0.00 | 0.00 | 0.00 | 92 | 1020.3 |
| 20260902123104 | 74 | 42 | 1.0 | 2.0 | 0.00 | 0.00 | 0.00 | 93 | 1020.2 |
| 20260902122533 | 74 | 39 | 1.0 | 2.0 | 0.00 | 0.00 | 0.00 | 93 | 1020.1 |
| 20260902122037 | 73 | 38 | 1.0 | 2.0 | 0.00 | 0.00 | 0.00 | 93 | 1020.1 |
| 20260902121555 | 73 | 34 | 1.0 | 2.0 | 0.00 | 0.00 | 0.00 | 94 | 1020.2 |
| 20260902121032 | 73 | 34 | 1.0 | 2.0 | 0.00 | 0.00 | 0.00 | 94 | 1020.1 |
| 20260902120534 | 73 | 33 | 1.0 | 2.0 | 0.00 | 0.00 | 0.00 | 94 | 1020.1 |
| 20260902120054 | 73 | 36 | 0.0 | 1.0 | 0.00 | 0.00 | 0.00 | 94 | 1020.0 |
| 20260902115533 | 72 | 36 | 0.0 | 2.0 | 0.00 | 0.00 | 0.00 | 94 | 1020.0 |
| 20260902115033 | 72 | 36 | 0.0 | 2.0 | 0.00 | 0.00 | 0.00 | 94 | 1020.1 |
| 20260902114549 | 72 | 38 | 1.0 | 2.0 | 0.00 | 0.00 | 0.00 | 94 | 1020.0 |
| 20260902114033 | 72 | 19 | 0.0 | 1.0 | 0.00 | 0.00 | 0.00 | 94 | 1019.8 |
| 20260902113534 | 72 | 17 | 0.0 | 1.0 | 0.00 | 0.00 | 0.00 | 94 | 1019.8 |
| 20260902113104 | 72 | 17 | 0.0 | 1.0 | 0.00 | 0.00 | 0.00 | 94 | 1019.7 |
| 20260902112536 | 72 | 17 | 0.0 | 1.0 | 0.00 | 0.00 | 0.00 | 94 | 1019.7 |
| 20260902112033 | 72 | 17 | 0.0 | 1.0 | 0.00 | 0.00 | 0.00 | 94 | 1019.7 |
| 20260902111605 | 72 | 17 | 0.0 | 1.0 | 0.00 | 0.00 | 0.00 | 94 | 1019.6 |
| 20260902111032 | 72 | 17 | 0.0 | 1.0 | 0.00 | 0.00 | 0.00 | 94 | 1019.6 |
| 20260902110539 | 72 | 17 | 0.0 | 1.0 | 0.00 | 0.00 | 0.00 | 94 | 1019.6 |
| 20260902110057 | 72 | 0 | 0.0 | 1.0 | 0.00 | 0.00 | 0.00 | 94 | 1019.6 |
| 20260902105540 | 72 | 17 | 0.0 | 1.0 | 0.00 | 0.00 | 0.00 | 94 | 1019.6 |
| 20260902105037 | 72 | 16 | 0.0 | 1.0 | 0.00 | 0.00 | 0.00 | 94 | 1019.7 |
| 20260902104614 | 72 | 17 | 0.0 | 1.0 | 0.00 | 0.00 | 0.00 | 94 | 1019.6 |
| 20260902104038 | 72 | 0 | 0.0 | 1.0 | 0.00 | 0.00 | 0.00 | 94 | 1019.6 |
| 20260902103536 | 72 | 9 | 0.0 | 1.0 | 0.00 | 0.00 | 0.00 | 94 | 1019.4 |
| 20260902103102 | 72 | 9 | 0.0 | 1.0 | 0.00 | 0.00 | 0.00 | 94 | 1019.4 |
| 20260902102537 | 72 | 9 | 0.0 | 1.0 | 0.00 | 0.00 | 0.00 | 94 | 1019.3 |
| 20260902102037 | 72 | 0 | 0.0 | 1.0 | 0.00 | 0.00 | 0.00 | 94 | 1019.4 |
| 20260902101554 | 72 | 0 | 0.0 | 1.0 | 0.00 | 0.00 | 0.00 | 94 | 1019.4 |
| 20260902101037 | 72 | 0 | 0.0 | 1.0 | 0.00 | 0.00 | 0.00 | 94 | 1019.5 |
| 20260902100537 | 72 | 344 | 0.0 | 1.0 | 0.00 | 0.00 | 0.00 | 94 | 1019.6 |
| 20260902100054 | 72 | 344 | 0.0 | 1.0 | 0.00 | 0.00 | 0.00 | 94 | 1019.6 |
| 20260902095538 | 72 | 344 | 0.0 | 1.0 | 0.00 | 0.00 | 0.00 | 94 | 1019.5 |
| 20260902095038 | 72 | 32 | 0.0 | 1.0 | 0.00 | 0.00 | 0.00 | 94 | 1019.6 |
| 20260902094549 | 72 | 32 | 0.0 | 1.0 | 0.00 | 0.00 | 0.00 | 94 | 1019.5 |
| 20260902094037 | 72 | 33 | 0.0 | 1.0 | 0.00 | 0.00 | 0.00 | 94 | 1019.6 |
| 20260902093537 | 72 | 32 | 0.0 | 1.0 | 0.00 | 0.00 | 0.00 | 94 | 1019.5 |
| 20260902093104 | 72 | 0 | 0.0 | 1.0 | 0.00 | 0.00 | 0.00 | 94 | 1019.4 |
| 20260902092539 | 72 | 0 | 0.0 | 1.0 | 0.00 | 0.00 | 0.00 | 94 | 1019.3 |
| 20260902092034 | 72 | 0 | 0.0 | 1.0 | 0.00 | 0.00 | 0.00 | 94 | 1019.3 |
| 20260902091552 | 72 | 36 | 0.0 | 1.0 | 0.00 | 0.00 | 0.00 | 95 | 1019.3 |
| 20260902091037 | 72 | 0 | 0.0 | 1.0 | 0.00 | 0.00 | 0.00 | 95 | 1019.3 |
| 20260902090540 | 72 | 0 | 0.0 | 0.0 | 0.00 | 0.00 | 0.00 | 94 | 1019.4 |
| 20260902090111 | 72 | 0 | 0.0 | 0.0 | 0.00 | 0.00 | 0.00 | 95 | 1019.3 |
| 20260902085536 | 72 | 0 | 0.0 | 0.0 | 0.00 | 0.00 | 0.00 | 95 | 1019.4 |
| 20260902085036 | 72 | 0 | 0.0 | 0.0 | 0.00 | 0.00 | 0.00 | 94 | 1019.3 |
| 20260902084600 | 72 | 0 | 0.0 | 0.0 | 0.00 | 0.00 | 0.00 | 94 | 1019.3 |
| 20260902084039 | 72 | 0 | 0.0 | 0.0 | 0.00 | 0.00 | 0.00 | 94 | 1019.2 |
| 20260902083536 | 72 | 0 | 0.0 | 0.0 | 0.00 | 0.00 | 0.00 | 94 | 1019.3 |
| 20260902083052 | 72 | 0 | 0.0 | 0.0 | 0.00 | 0.00 | 0.00 | 94 | 1019.2 |
| 20260902082537 | 72 | 0 | 0.0 | 0.0 | 0.00 | 0.00 | 0.00 | 94 | 1019.2 |
| 20260902082037 | 72 | 0 | 0.0 | 0.0 | 0.00 | 0.00 | 0.00 | 94 | 1019.1 |
| 20260902081602 | 72 | 0 | 0.0 | 0.0 | 0.00 | 0.00 | 0.00 | 94 | 1019.0 |
| 20260902081037 | 72 | 0 | 0.0 | 0.0 | 0.00 | 0.00 | 0.00 | 93 | 1019.0 |
| 20260902080537 | 72 | 0 | 0.0 | 0.0 | 0.00 | 0.00 | 0.00 | 93 | 1018.9 |
| 20260902080059 | 73 | 0 | 0.0 | 0.0 | 0.00 | 0.00 | 0.00 | 93 | 1019.1 |
| 20260902075537 | 73 | 0 | 0.0 | 0.0 | 0.00 | 0.00 | 0.00 | 93 | 1018.9 |
| 20260902075036 | 73 | 0 | 0.0 | 0.0 | 0.00 | 0.00 | 0.00 | 92 | 1018.9 |
| 20260902074604 | 73 | 0 | 0.0 | 0.0 | 0.00 | 0.00 | 0.00 | 93 | 1018.8 |
| 20260902074036 | 73 | 0 | 0.0 | 0.0 | 0.00 | 0.00 | 0.00 | 93 | 1018.8 |
| 20260902073536 | 73 | 0 | 0.0 | 0.0 | 0.00 | 0.00 | 0.00 | 92 | 1018.7 |
| 20260902073104 | 73 | 0 | 0.0 | 0.0 | 0.00 | 0.00 | 0.00 | 92 | 1018.9 |
| 20260902072538 | 73 | 0 | 0.0 | 0.0 | 0.00 | 0.00 | 0.00 | 92 | 1018.8 |
| 20260902072037 | 73 | 0 | 0.0 | 0.0 | 0.00 | 0.00 | 0.00 | 91 | 1018.7 |
| 20260902071613 | 74 | 0 | 0.0 | 0.0 | 0.00 | 0.00 | 0.00 | 91 | 1018.8 |
| 20260902071037 | 74 | 0 | 0.0 | 0.0 | 0.00 | 0.00 | 0.00 | 90 | 1018.8 |
| 20260902070537 | 74 | 0 | 0.0 | 0.0 | 0.00 | 0.00 | 0.00 | 90 | 1018.8 |
| 20260902070059 | 75 | 0 | 0.0 | 1.0 | 0.00 | 0.00 | 0.00 | 89 | 1018.8 |
| 20260902065536 | 75 | 0 | 0.0 | 1.0 | 0.00 | 0.00 | 0.00 | 89 | 1018.9 |
| 20260902065037 | 75 | 0 | 0.0 | 1.0 | 0.00 | 0.00 | 0.00 | 89 | 1018.8 |
| 20260902064555 | 75 | 36 | 0.0 | 1.0 | 0.00 | 0.00 | 0.00 | 89 | 1018.8 |
| 20260902064036 | 75 | 36 | 0.0 | 1.0 | 0.00 | 0.00 | 0.00 | 90 | 1018.8 |
| 20260902063536 | 75 | 36 | 0.0 | 1.0 | 0.00 | 0.00 | 0.00 | 90 | 1018.7 |
| 20260902063101 | 75 | 35 | 0.0 | 1.0 | 0.00 | 0.00 | 0.00 | 90 | 1018.7 |
| 20260902062538 | 75 | 35 | 0.0 | 1.0 | 0.00 | 0.00 | 0.00 | 90 | 1018.7 |
| 20260902062036 | 75 | 35 | 0.0 | 1.0 | 0.00 | 0.00 | 0.00 | 90 | 1018.8 |
| 20260902061037 | 75 | 0 | 0.0 | 1.0 | 0.00 | 0.00 | 0.00 | 90 | 1018.9 |
| 20260902060536 | 75 | 0 | 0.0 | 1.0 | 0.00 | 0.00 | 0.00 | 90 | 1018.9 |
| 20260902060101 | 75 | 36 | 0.0 | 0.0 | 0.00 | 0.00 | 0.00 | 90 | 1018.9 |
| 20260902055535 | 75 | 0 | 0.0 | 0.0 | 0.00 | 0.00 | 0.00 | 90 | 1019.0 |
| 20260902055037 | 75 | 0 | 0.0 | 1.0 | 0.00 | 0.00 | 0.00 | 90 | 1019.0 |
| 20260902054613 | 75 | 0 | 0.0 | 1.0 | 0.00 | 0.00 | 0.00 | 90 | 1018.9 |
| 20260902054036 | 75 | 0 | 0.0 | 0.0 | 0.00 | 0.00 | 0.00 | 90 | 1019.0 |
| 20260902053536 | 75 | 0 | 0.0 | 0.0 | 0.00 | 0.00 | 0.00 | 90 | 1018.9 |
| 20260902053109 | 75 | 0 | 0.0 | 0.0 | 0.00 | 0.00 | 0.00 | 90 | 1018.9 |
| 20260902052535 | 75 | 0 | 0.0 | 0.0 | 0.00 | 0.00 | 0.00 | 90 | 1018.8 |
| 20260902052036 | 75 | 0 | 0.0 | 0.0 | 0.00 | 0.00 | 0.00 | 90 | 1019.0 |
| 20260902051601 | 75 | 0 | 0.0 | 0.0 | 0.00 | 0.00 | 0.00 | 90 | 1018.9 |
| 20260902051036 | 75 | 0 | 0.0 | 0.0 | 0.00 | 0.00 | 0.00 | 90 | 1018.7 |
| 20260902050535 | 75 | 0 | 0.0 | 0.0 | 0.00 | 0.00 | 0.00 | 90 | 1018.8 |
| 20260902045536 | 75 | 0 | 0.0 | 0.0 | 0.00 | 0.00 | 0.00 | 90 | 1018.9 |
| 20260902045036 | 75 | 0 | 0.0 | 0.0 | 0.00 | 0.00 | 0.00 | 90 | 1018.8 |
| 20260902044556 | 75 | 0 | 0.0 | 0.0 | 0.00 | 0.00 | 0.00 | 90 | 1018.9 |
| 20260902044036 | 75 | 0 | 0.0 | 0.0 | 0.00 | 0.00 | 0.00 | 90 | 1018.9 |
| 20260902043536 | 75 | 0 | 0.0 | 0.0 | 0.00 | 0.00 | 0.00 | 90 | 1018.8 |
| 20260902043057 | 75 | 0 | 0.0 | 0.0 | 0.00 | 0.00 | 0.00 | 90 | 1018.8 |
| 20260902042537 | 75 | 0 | 0.0 | 0.0 | 0.00 | 0.00 | 0.00 | 90 | 1019.0 |
| 20260902042036 | 75 | 0 | 0.0 | 0.0 | 0.00 | 0.00 | 0.00 | 90 | 1019.0 |
| 20260902041559 | 75 | 0 | 0.0 | 0.0 | 0.00 | 0.00 | 0.00 | 90 | 1019.0 |
| 20260902041037 | 76 | 0 | 0.0 | 0.0 | 0.00 | 0.00 | 0.00 | 89 | 1019.0 |
| 20260902040535 | 76 | 0 | 0.0 | 0.0 | 0.00 | 0.00 | 0.00 | 89 | 1019.1 |
| 20260902040100 | 76 | 0 | 0.0 | 0.0 | 0.00 | 0.00 | 0.00 | 89 | 1019.0 |
| 20260902035535 | 76 | 0 | 0.0 | 0.0 | 0.00 | 0.00 | 0.00 | 89 | 1019.1 |
| 20260902035035 | 76 | 0 | 0.0 | 0.0 | 0.00 | 0.00 | 0.00 | 89 | 1019.0 |
| 20260902034558 | 76 | 0 | 0.0 | 0.0 | 0.00 | 0.00 | 0.00 | 89 | 1018.8 |
| 20260902034038 | 76 | 0 | 0.0 | 0.0 | 0.00 | 0.00 | 0.00 | 89 | 1018.9 |
| 20260902033536 | 76 | 0 | 0.0 | 0.0 | 0.00 | 0.00 | 0.00 | 89 | 1018.9 |
| 20260902033056 | 76 | 0 | 0.0 | 0.0 | 0.00 | 0.00 | 0.00 | 89 | 1018.9 |
| 20260902032536 | 77 | 0 | 0.0 | 0.0 | 0.00 | 0.00 | 0.00 | 89 | 1018.8 |
| 20260902032036 | 77 | 0 | 0.0 | 0.0 | 0.00 | 0.00 | 0.00 | 89 | 1018.9 |
| 20260902031602 | 77 | 0 | 0.0 | 0.0 | 0.00 | 0.00 | 0.00 | 89 | 1019.0 |
| 20260902031037 | 77 | 0 | 0.0 | 0.0 | 0.00 | 0.00 | 0.00 | 89 | 1019.0 |
| 20260902030536 | 77 | 0 | 0.0 | 0.0 | 0.00 | 0.00 | 0.00 | 89 | 1018.8 |
| 20260902030054 | 77 | 0 | 0.0 | 0.0 | 0.00 | 0.00 | 0.00 | 88 | 1018.8 |
| 20260902025536 | 77 | 0 | 0.0 | 0.0 | 0.00 | 0.00 | 0.00 | 88 | 1018.9 |
| 20260902025039 | 77 | 0 | 0.0 | 0.0 | 0.00 | 0.00 | 0.00 | 88 | 1018.9 |
| 20260902024556 | 77 | 0 | 0.0 | 0.0 | 0.00 | 0.00 | 0.00 | 88 | 1018.9 |
| 20260902024036 | 77 | 0 | 0.0 | 0.0 | 0.00 | 0.00 | 0.00 | 88 | 1018.9 |
| 20260902023537 | 77 | 0 | 0.0 | 0.0 | 0.00 | 0.00 | 0.00 | 88 | 1019.0 |
| 20260902023106 | 77 | 0 | 0.0 | 0.0 | 0.00 | 0.00 | 0.00 | 87 | 1018.9 |
| 20260902022536 | 78 | 0 | 0.0 | 0.0 | 0.00 | 0.00 | 0.00 | 87 | 1018.9 |
| 20260902022036 | 78 | 0 | 0.0 | 0.0 | 0.00 | 0.00 | 0.00 | 87 | 1019.1 |
| 20260902021559 | 77 | 0 | 0.0 | 0.0 | 0.00 | 0.00 | 0.00 | 87 | 1018.9 |
| 20260902021036 | 78 | 0 | 0.0 | 0.0 | 0.00 | 0.00 | 0.00 | 87 | 1018.9 |